Probability
3 1 0 1 2 2 3 3 1 0 0 0 0 1 3 4 3 4 4 2 0 0 0 0 0 0 0 0 0 0 0 0 0 1 1 1 0 0
4 3 2 1 1 1 2 3 2 1 0 0 0 2 3 4 4 5 4 2 1 0 0 0 0 0 0 0 0 0 0 0 0 0 0 0 0 1
7 6 4 2 1 1 1 2 1 1 0 0 0 1 3 5 6 6 5 3 3 1 0 0 0 0 0 0 0 0 0 0 0 0 0 0 0 1
7 6 4 3 2 2 1 1 1 1 0 0 0 1 3 5 6 5 5 4 2 1 0 0 0 0 0 0 0 0 0 0 0 0 0 0 0 1
4 4 4 3 4 4 3 2 2 1 0 0 0 1 2 3 4 4 4 2 1 0 0 0 0 0 0 0 0 0 0 0 0 0 0 0 0 0
4 4 4 4 6 6 5 4 4 2 1 1 1 1 2 2 2 2 2 1 1 0 0 0 0 0 0 0 0 0 0 0 0 0 0 0 0 0
4 5 5 6 6 6 6 5 5 5 3 3 2 2 2 2 2 1 1 1 2 1 1 0 0 0 0 0 0 0 0 0 0 0 0 0 0 0
4 5 6 7 6 6 5 5 5 6 5 5 4 3 3 3 2 1 1 3 4 3 2 1 0 0 0 0 0 0 0 0 0 0 0 0 0 0
6 6 7 8 8 7 6 5 5 5 5 6 6 5 4 3 3 3 3 4 4 4 3 2 1 0 0 0 0 0 0 0 0 0 0 0 0 0
6 6 7 7 8 9 8 8 6 5 4 6 8 7 4 4 4 4 3 4 3 3 3 3 2 1 0 0 0 0 0 0 0 0 0 0 0 0
6 6 6 7 7 7 8 9 9 8 6 6 6 6 4 3 4 3 3 4 4 3 3 3 3 2 2 1 1 0 0 0 0 0 0 0 0 0
6 6 6 6 5 5 6 8 9 10 10 9 7 6 5 4 4 3 4 6 6 4 3 3 4 4 5 4 3 1 0 0 0 0 0 0 0 0
6 6 6 6 3 2 3 6 8 9 11 11 10 9 9 8 5 4 5 7 7 4 2 3 4 6 8 8 6 3 2 2 1 0 0 0 0 0
4 5 6 4 2 0 1 3 4 6 8 11 13 14 14 12 8 5 4 5 5 3 1 1 3 6 7 8 6 4 4 3 2 0 0 0 0 0
2 3 3 2 1 1 1 1 2 3 6 9 14 17 17 14 10 5 2 2 1 1 0 0 1 3 5 5 4 4 4 4 2 0 0 0 0 0
0 1 1 1 1 2 2 2 2 3 4 8 12 15 14 12 10 7 3 1 1 1 0 0 1 2 3 3 3 3 3 3 1 0 0 0 0 0
1 1 1 1 2 3 3 3 4 4 5 7 9 10 9 9 9 8 6 3 2 1 0 0 0 1 2 2 3 3 3 3 2 0 0 0 0 0
2 3 3 2 2 3 3 4 5 6 6 7 8 7 7 8 9 9 8 5 2 1 1 0 0 1 1 1 1 2 3 2 1 0 0 0 0 0
2 3 3 2 2 3 4 4 6 8 8 8 7 7 7 8 9 10 10 7 4 2 2 1 1 1 1 1 0 1 2 1 0 0 0 0 0 0
1 2 3 2 2 4 5 5 6 7 7 7 7 6 7 8 10 10 10 8 7 5 3 1 1 2 2 1 0 0 0 0 0 0 0 0 0 0
0 1 2 2 3 5 6 7 6 5 5 5 6 6 6 7 9 10 10 9 8 7 4 1 1 1 2 1 0 0 0 0 0 0 0 0 0 0
0 0 1 1 3 5 7 8 7 5 4 4 5 5 7 8 8 9 9 8 7 5 3 1 1 1 0 0 0 0 0 0 0 0 0 0 0 0
0 0 0 0 2 4 6 8 8 6 5 5 4 6 8 9 9 9 9 8 6 3 1 1 1 0 0 0 0 0 0 0 0 0 0 0 0 0
Wind_Speed
2 3 2 2 2 2 2 2 3 2 2 2 2 2 2 2 3 3 3 4 4 4 4 4 4 4 4 4 3 3 3 4 3 3 4 5 6 7
1 1 2 1 1 1 1 2 3 3 3 2 2 1 1 2 3 3 3 4 5 5 5 5 5 4 4 4 3 3 3 3 3 3 3 4 4 5
2 2 2 2 1 1 1 1 2 3 3 2 2 1 2 2 1 2 2 3 3 4 5 4 4 4 4 3 4 4 4 4 3 3 3 3 2 3
3 2 3 2 2 1 1 2 2 3 3 3 2 1 2 2 2 2 2 2 2 4 5 5 4 4 4 4 4 4 4 4 4 4 3 3 3 3
3 3 3 2 3 2 2 2 2 2 2 3 2 1 1 1 1 1 2 1 2 3 4 4 5 5 5 5 5 4 4 5 4 4 4 4 4 4
3 3 3 4 4 3 3 3 2 2 2 2 2 1 1 1 1 1 1 1 2 2 2 2 3 4 4 5 5 5 5 5 5 4 4 4 4 4
3 3 4 4 5 4 3 3 3 2 2 2 2 2 2 1 2 1 2 2 2 2 2 2 2 2 2 4 5 5 5 5 5 5 5 4 4 4
3 3 4 4 4 5 5 5 5 4 4 3 3 3 4 3 2 2 2 1 2 2 2 2 2 2 3 3 4 5 5 5 5 5 5 5 5 5
3 3 3 3 3 3 4 4 5 6 6 5 5 5 5 4 4 3 3 3 3 2 2 2 2 3 3 3 5 5 6 6 6 6 6 6 6 6
4 4 4 4 3 3 3 3 4 4 5 5 6 6 6 5 5 5 4 3 2 2 3 3 2 3 2 2 4 5 6 6 6 6 6 6 6 6
4 4 4 4 5 4 3 3 4 4 4 5 6 6 6 6 5 3 3 3 3 3 3 3 2 2 2 2 3 5 5 5 5 6 6 6 6 6
3 4 6 6 5 4 4 4 5 5 3 3 3 4 4 4 6 6 5 4 3 3 3 3 2 1 1 1 1 2 2 3 4 5 5 5 5 4
3 3 4 5 6 6 5 5 7 5 3 3 3 3 3 3 3 4 5 5 5 4 3 4 3 2 2 1 1 1 1 1 1 2 4 5 5 4
4 4 3 5 5 5 4 5 7 4 3 3 3 3 3 3 3 3 5 5 5 5 4 5 3 3 3 2 2 1 1 1 1 1 1 2 3 4
3 5 5 5 5 4 6 6 5 3 3 4 4 4 4 3 2 2 2 3 3 4 4 5 4 4 3 3 2 2 1 1 1 1 1 1 2 2
3 3 4 4 3 4 4 3 3 3 4 4 5 4 3 2 2 2 2 2 2 2 2 3 4 5 3 4 4 3 2 2 1 1 1 1 2 3
2 2 2 2 2 2 2 2 2 3 4 4 3 3 3 3 2 2 2 2 2 2 2 1 1 1 2 3 3 3 2 2 2 1 1 1 2 2
0 1 2 2 3 3 3 3 3 3 3 3 3 3 3 3 3 2 2 3 3 3 2 1 1 1 0 1 3 3 2 2 2 2 2 2 2 2
1 2 3 3 3 3 3 3 3 3 3 3 3 3 3 3 3 3 3 3 3 3 2 2 2 2 2 3 2 4 3 2 2 1 2 2 2 2
2 3 3 3 3 3 3 3 3 3 2 3 3 3 3 2 2 2 3 3 3 3 2 2 3 3 4 3 1 1 4 3 2 2 2 1 1 1
3 3 3 3 3 3 3 3 3 3 2 2 2 3 3 3 2 2 2 3 3 3 3 3 3 3 1 1 1 1 1 2 3 3 2 2 1 2
3 4 4 3 3 3 3 2 2 2 2 2 2 2 2 2 3 3 3 3 3 3 3 2 1 2 2 3 3 2 1 0 1 2 2 2 2 3
3 4 4 3 3 3 3 3 3 2 2 2 2 2 3 3 3 3 3 3 2 2 2 1 1 1 1 2 2 1 1 1 0 0 1 2 2 3
Wind_Direction
232 231 236 242 229 224 205 189 183 208 243 225 222 216 210 205 208 204 210 214 217 216 221 221 221 226 230 229 226 236 246 253 258 255 253 249 243 236
239 227 241 253 242 215 201 197 194 195 224 232 222 226 222 227 198 200 210 218 219 221 221 217 217 219 224 223 224 232 232 239 246 247 247 253 249 230
247 226 241 236 229 227 196 192 199 192 215 241 216 214 198 217 206 207 211 212 220 221 218 210 209 209 207 215 225 228 229 233 238 239 241 250 243 219
249 241 247 235 229 225 206 216 212 204 202 232 229 208 214 218 210 216 223 218 223 224 216 208 204 203 205 213 221 225 228 230 232 231 234 241 241 230
242 237 240 227 233 229 222 224 225 216 207 215 239 218 224 214 193 236 231 238 240 224 210 211 210 207 209 215 220 223 224 225 226 225 227 234 236 231
257 244 237 223 223 220 221 224 220 213 212 216 236 239 233 225 190 216 247 234 249 252 233 220 215 215 218 218 219 220 222 222 221 222 224 226 232 233
268 261 249 238 227 219 219 216 208 208 209 216 233 235 234 215 225 213 235 255 253 230 222 226 216 221 226 227 224 222 222 222 220 220 221 221 223 229
262 273 265 249 249 240 233 217 205 204 209 216 232 238 242 229 217 213 221 229 254 207 202 238 214 234 236 230 223 219 222 223 221 219 217 220 224 228
249 260 267 268 252 245 243 235 234 230 215 213 227 236 238 225 209 219 219 225 238 216 194 239 225 240 243 238 224 223 224 221 220 222 224 226 228 231
252 250 256 269 260 238 237 242 246 247 238 226 227 234 235 228 214 216 217 225 249 227 196 225 226 238 252 241 223 219 225 224 223 225 228 229 230 231
260 256 255 261 264 246 231 242 256 261 254 241 239 240 239 230 209 195 198 205 241 234 196 211 224 240 247 245 231 222 228 228 227 226 225 225 225 223
270 262 254 256 259 240 226 235 252 259 259 266 260 262 251 239 210 205 205 206 219 231 189 190 205 197 246 240 248 246 231 229 230 229 227 221 208 206
266 268 264 260 257 252 241 238 245 254 256 252 258 260 252 239 223 215 213 208 211 226 192 180 193 193 210 244 263 248 236 237 232 227 218 209 203 201
263 269 271 268 261 259 246 250 252 250 247 246 252 254 252 245 236 223 219 222 226 229 197 184 192 191 196 223 242 228 218 218 214 218 207 189 208 213
269 276 281 280 273 261 253 254 245 235 234 238 242 245 242 242 234 222 212 216 233 237 212 205 202 198 205 221 225 225 237 239 212 203 200 203 208 201
290 296 293 285 276 269 272 262 244 238 235 242 248 249 242 229 223 213 208 209 215 233 224 212 205 198 212 218 215 223 218 208 213 225 239 248 231 216
283 300 309 308 301 295 284 277 263 252 247 253 250 246 237 231 231 219 205 199 216 230 221 191 181 185 213 210 216 220 212 209 208 198 206 250 255 234
225 283 284 278 277 278 275 276 269 262 259 253 247 242 238 231 228 216 204 197 210 228 223 192 151 127 122 263 217 216 213 214 210 195 198 223 255 246
212 258 263 264 263 262 263 265 268 269 266 256 251 248 241 235 225 217 207 202 213 227 222 192 176 177 210 251 242 203 205 199 189 202 213 220 238 252
257 258 260 260 259 260 261 263 269 271 261 253 249 245 237 231 230 226 215 209 215 223 222 199 195 199 211 226 227 234 202 196 191 203 217 226 243 264
270 269 264 264 265 261 259 258 258 260 261 250 249 247 241 231 230 232 229 215 214 217 221 230 228 203 175 136 163 238 244 210 206 203 199 201 215 215
273 274 275 273 272 269 265 257 253 257 261 253 256 256 249 240 236 234 226 219 214 214 224 234 180 153 164 184 205 222 238 295 192 202 228 230 220 219
266 267 269 272 269 266 260 255 256 258 251 248 253 251 247 240 234 228 224 217 210 207 203 195 176 174 189 190 196 212 206 203 185 184 289 293 252 262